Location: C?lug?re?ti
(46.3833°N, 22.8000°E)
Time: 21:29:44
(UTC+00:00)

Daily predictions for brighter satellites

Satellite Brightness Start Highest point End
(mag) Time Altitude Azimuth Time Altitude Azimuth Time Altitude Azimuth
Lacrosse 5 2.9 15:48:46 10° W 15:53:32 40° NNW 15:58:19 10° NE
Cosmos 1655 Rocket 4.1 15:47:48 10° N 15:54:15 89° E 16:00:40 10° S
ERS-2 2.2 15:51:04 10° NNE 15:54:41 56° ESE 15:58:15 10° S
YAOGAN 1 4.0 15:52:15 10° ESE 15:55:07 18° ENE 15:57:59 10° NNE
AQUARIUS 4.2 15:54:32 10° SSE 15:59:02 90° ESE 16:03:34 10° NNW
CZ-4C R/B 4.3 15:56:02 10° NW 16:00:01 18° N 16:04:26 10° NE
ERBS 4.1 15:58:23 10° W 16:01:12 24° NNW 16:04:01 10° NNE
Cosmos 44 4.3 16:01:11 10° SSE 16:04:45 24° ESE 16:08:29 10° ENE
Cosmos 1400 Rocket 4.3 16:03:37 10° SE 16:06:26 18° E 16:09:15 10° NE
SAR-Lupe-4 4.0 16:03:20 10° NNE 16:06:46 41° E 16:10:10 10° S
USA 305 4.2 16:03:01 10° WNW 16:06:49 29° N 16:10:36 10° ENE
CZ-4B R/B 1.2 16:04:11 10° NNE 16:07:27 71° ESE 16:10:37 10° S
Okean-O 3.5 16:04:04 10° SE 16:07:51 29° ENE 16:11:39 10° N
Cosmos 1726 Rocket 4.2 16:04:01 10° SSE 16:07:53 32° E 16:11:47 10° NNE
Meteor 2-21 4.5 16:01:52 10° N 16:08:01 66° ENE 16:14:05 10° SSE
Cosmos 1758 Rocket 3.5 16:03:49 10° N 16:08:15 69° E 16:12:35 10° SSE
Cosmos 1943 Rocket 4.3 16:07:26 10° W 16:11:45 23° NW 16:16:05 10° N
Cosmos 1818 4.3 16:07:17 10° SW 16:12:36 54° NW 16:17:58 10° NNE
USA 306 4.2 16:09:18 10° WNW 16:13:05 29° N 16:16:40 11° ENE
CZ-4B R/B 4.1 16:09:14 10° S 16:14:44 57° WSW 16:20:13 10° NNW
Aureole 3 4.2 16:14:15 10° SE 16:16:39 19° E 16:18:54 10° NE
Cosmos 2266 Rocket 4.2 16:11:06 10° N 16:17:19 80° W 16:23:37 10° S
Cosmos 1331 Rocket 4.1 16:13:52 10° S 16:18:51 51° ESE 16:23:51 10° NNE
ATLAS 5 CENTAUR R/B 3.6 16:18:33 10° W 16:21:57 22° NNW 16:25:43 10° NNE
Cosmos 1606 Rocket 3.6 16:17:53 10° S 16:22:09 58° E 16:26:29 10° NNE
SAR-Lupe-1 4.0 16:20:56 10° NNE 16:24:30 63° ESE 16:28:03 10° S
SKYMED 2 3.7 16:21:10 10° NNE 16:25:26 53° E 16:29:41 10° S
Cosmos 2228 2.9 16:22:32 10° S 16:26:44 69° E 16:30:59 10° NNE
CZ-2C R/B 3.7 16:21:48 10° SE 16:27:10 40° ENE 16:32:25 10° N
Cosmos 292 Rocket 4.0 16:25:10 10° S 16:29:44 47° ESE 16:34:21 10° NNE
SL-4 R/B 2.6 16:26:24 10° W 16:29:45 40° N 16:32:26 16° NE
Cosmos 1908 4.4 16:27:12 10° SSW 16:30:54 46° WNW 16:34:39 10° N
Cosmos 2227 Rocket 2.9 16:25:56 10° NNW 16:31:02 33° NE 16:35:15 14° ESE
ARGOS 4.2 16:27:37 11° ESE 16:31:45 24° ENE 16:36:02 10° N
FALCON 9 DEB 4.2 16:31:13 10° SSW 16:33:54 25° SE 16:34:54 21° ESE
USA 215 4.0 16:30:07 14° ENE 16:35:10 40° NNE 16:41:09 10° NW
ATLAS 2AS CENTAUR R/B 4.3 16:29:43 10° NW 16:35:40 23° NNE 16:40:27 13° ENE
Cosmos 1346 Rocket 4.1 16:34:13 10° NNE 16:37:11 20° ENE 16:37:17 20° ENE
SeaSat 1 3.3 16:35:05 16° ESE 16:38:11 31° NE 16:42:30 10° N
Meteor 2-16 Rocket 4.4 16:32:06 10° N 16:38:13 72° E 16:44:17 10° SSE
Cosmos 1656 4.4 16:35:43 10° SSE 16:40:28 30° ESE 16:44:50 12° NE
Cosmos 2263 Rocket 4.2 16:40:04 10° NNE 16:41:15 11° NNE 16:42:24 10° NE
FALCON 9 DEB 4.1 16:39:01 10° SSW 16:41:50 27° SE 16:42:34 25° ESE
Cosmos 1892 3.5 16:39:10 10° NNE 16:42:35 29° ENE 16:44:14 21° ESE
Cosmos 968 Rocket 4.2 16:39:19 10° N 16:44:04 33° ENE 16:46:54 20° ESE
CSL-04 Rocket 4.1 16:39:13 10° SE 16:44:21 40° ENE 16:49:29 10° N
CZ-2D R/B 3.1 16:40:36 10° SSE 16:44:24 75° ENE 16:48:13 10° N
Cosmos 1110 Rocket 4.0 16:39:10 10° SSW 16:44:26 87° WNW 16:49:42 10° NNE
Cosmos 1302 Rocket 4.2 16:42:18 10° S 16:47:18 48° ESE 16:52:23 10° NNE
Cosmos 2058 Rocket 3.1 16:44:15 10° S 16:48:36 55° E 16:53:01 10° NNE
CZ-4 R/B 4.4 16:45:27 10° SSE 16:49:36 89° WSW 16:53:48 10° NNW
Cosmos 1953 Rocket 3.6 16:45:39 10° N 16:50:04 85° W 16:54:30 10° S
Cosmos 1697 Rocket 4.0 16:48:06 10° SE 16:51:02 19° ESE 16:51:02 19° ESE
USA 307 4.0 16:51:12 10° NW 16:55:05 32° N 16:56:43 24° NE
Cosmos 1300 2.8 16:51:32 10° SSW 16:55:19 75° W 16:59:10 10° N
HJ-1C 4.5 16:57:03 28° NE 16:57:03 28° NE 16:59:18 10° N
FALCON 9 DEB 3.5 16:53:32 10° SSW 16:56:33 38° SE 16:56:48 38° SE
Timation 2 Rocket 4.1 16:51:25 10° NNW 16:58:02 89° ENE 17:04:51 10° SSE
S3M 4.3 16:52:48 10° SSE 16:58:25 41° E 17:04:07 10° NNE
USA 308 4.0 16:55:58 10° NW 16:59:52 33° NNE 17:01:16 26° NE
GEOS 3 Rocket 3.6 16:55:36 16° SE 16:59:59 74° NE 17:05:23 10° NW
Helios 1A Rocket 3.1 16:57:08 10° S 17:01:15 74° WSW 17:05:23 10° NNW
BREEZE-M R/B 3.8 16:58:37 10° WNW 17:02:31 62° N 17:06:24 26° ENE
NOSS 2-2 (C) 4.4 16:58:53 10° NW 17:04:24 75° NE 17:10:40 16° SE
Cosmos 1939 Rocket 4.2 17:05:38 10° S 17:09:25 41° W 17:13:10 10° NNW
PSLV R/B 4.4 17:06:02 10° N 17:10:13 62° WNW 17:14:18 10° SSW
Cosmos 1417 Rocket 4.4 17:04:34 10° S 17:10:42 63° E 17:16:56 10° NNE
Cosmos 2297 Rocket 2.1 17:06:03 10° NNW 17:11:45 74° ENE 17:15:53 19° SE
Cosmos 1825 4.3 17:08:59 10° NNE 17:09:41 14° NNE 17:09:41 14° NNE
COSMO-SKYMED 1 3.5 17:09:17 10° N 17:13:29 49° WNW 17:17:40 10° SW
In-Cosmos 22 Rocket 4.0 17:10:09 10° N 17:15:32 88° E 17:20:58 10° S
Cosmos 1689 Rocket 4.1 17:13:43 10° N 17:16:17 29° WNW 17:18:50 10° SW
Cosmos 1408 3.9 17:14:20 10° N 17:16:12 26° NNE 17:16:12 26° NNE
Aureole 3 Rocket 3.1 17:14:23 10° SSW 17:18:02 74° W 17:23:00 10° N
H-2A R/B 2.0 17:13:30 10° SSE 17:18:51 73° ENE 17:24:19 10° N
MOS 1 Rocket 3.2 17:15:11 10° NNE 17:19:45 63° E 17:24:34 10° S
CSL-04 Debris 4.1 17:15:24 10° SSE 17:20:49 81° ENE 17:26:18 10° NNW
Cosmos 2058 2.8 17:17:51 10° N 17:21:44 58° ENE 17:21:44 58° ENE
SL-08 RB Rocket 4.5 17:25:04 35° NE 17:25:04 35° NE 17:28:13 10° N
CZ-4 R/B 2.3 17:23:17 10° S 17:27:04 46° W 17:30:50 10° NNW
Cosmos 1340 3.2 17:23:25 10° NNW 17:27:08 58° W 17:30:51 10° S
Cosmos 1553 Rocket 4.0 17:23:16 10° S 17:29:40 86° W 17:36:00 10° N
YAOGAN 1 3.2 17:26:34 10° S 17:30:48 54° W 17:35:05 10° NNW
SJ-11-01 4.3 17:31:08 13° S 17:35:14 79° WSW 17:39:57 10° NNW
Cosmos 1076 Rocket 4.3 17:31:24 10° N 17:34:11 38° NNE 17:34:11 38° NNE
Cosmos 2219 3.4 17:31:22 10° NNW 17:37:07 70° WSW 17:41:21 19° SSE
Ariane Rocket 3.8 17:38:39 35° NNE 17:38:39 35° NNE 17:42:11 10° N
Lacrosse 5 3.4 17:33:29 10° WNW 17:37:38 24° N 17:38:57 22° NNE
Geosat 4.3 17:36:58 13° NNE 17:41:29 67° WNW 17:46:27 10° SW
Cosmos 1400 Rocket 4.2 17:38:41 10° SW 17:42:36 41° WNW 17:46:30 10° N
Okean-O 4.4 17:40:16 10° SSW 17:44:15 32° W 17:48:15 10° NNW
Cosmos 44 4.0 17:41:15 10° WSW 17:45:39 49° NW 17:47:38 30° N
USA 305 3.7 17:43:23 10° NW 17:46:51 42° N 17:46:51 42° N
Atlas Centaur 2 4.4 17:41:43 10° SSW 17:47:37 21° SSE 17:48:38 20° SSE
Cosmos 2082 3.6 17:42:21 10° NNW 17:48:05 67° ENE 17:48:24 65° E
CZ-4C R/B 4.0 17:45:41 10° NNW 17:51:02 25° NNE 17:52:06 24° NE
USA 306 3.9 17:49:37 10° NW 17:52:49 40° NNW 17:52:49 40° NNW
Cosmos 1745 Rocket 4.2 17:48:41 10° NNW 17:54:57 71° W 18:01:14 10° S
Meteor 2-1 Rocket 4.2 17:55:56 10° SSW 18:01:27 77° W 18:07:00 10° N
Meteor 2-15 Rocket 4.5 17:55:51 10° SSW 18:02:00 78° W 18:08:11 10° N
NOSS 3-4 (A) 4.2 17:59:45 10° NNW 18:06:17 44° NE 18:06:19 44° NE
NOSS 3-4 (C) 4.2 17:59:51 10° NNW 18:06:23 44° NE 18:06:24 44° NE
ATLAS 5 CENTAUR R/B 4.4 18:06:51 10° NNW 18:08:31 12° N 18:09:34 11° N
IRS-1A Rocket 4.4 18:10:09 61° N 18:10:09 61° N 18:14:45 10° NNW
SL-4 R/B 4.0 18:06:22 10° WNW 18:08:01 23° NW 18:08:01 23° NW
ARGOS 3.7 18:09:09 30° SSW 18:11:38 56° W 18:16:59 10° NNW
Cosmos 1346 Rocket 4.5 18:10:00 10° NNW 18:12:50 32° WNW 18:12:50 32° WNW
Cosmos 2227 Rocket 3.1 18:09:52 10° NW 18:15:14 45° WSW 18:17:08 33° SSW
SeaSat 1 3.3 18:14:54 43° SW 18:15:32 46° WSW 18:20:18 10° NW
NOSS 3-3 (A) 4.3 18:09:52 10° SSW 18:14:04 51° SSW 18:14:04 51° SSW
NOSS 3-3 (C) 4.3 18:09:57 10° SSW 18:14:12 51° SSW 18:14:12 51° SSW
Meteor 2-10 Rocket 4.3 18:10:43 10° SSW 18:15:56 50° WNW 18:20:59 10° N
USA 215 3.1 18:17:28 75° NE 18:17:41 76° NNE 18:24:13 10° NW
Cosmos 1709 Rocket 4.1 18:18:48 10° NNW 18:25:10 73° W 18:25:51 67° SW
Cosmos 2263 Rocket 3.7 18:21:27 10° NNW 18:24:14 26° N 18:24:14 26° N
ATLAS 2AS CENTAUR R/B 3.3 18:21:19 10° NW 18:27:53 46° NNE 18:27:53 46° NNE
Cosmos 1697 Rocket 4.0 18:29:55 10° SW 18:32:53 32° SW 18:32:53 32° SW
CZ-4C R/B 4.2 19:33:58 10° NW 19:37:16 31° NNW 19:37:16 31° NNW
